Weather History for Oaxaca, Mexico

Change the Weather History Date:

Sunday, March 3, 2013

  Actual Average Record
Temperature  
Mean Temperature 62 °F -  
Max Temperature 81 °F 85 °F 95 °F (2007)
Min Temperature 42 °F 53 °F 39 °F (2009)
Degree Days  
Heating Degree Days 4    
Growing Degree Days 12 (Base 50)    
Moisture  
Dew Point 13 °F    
Average Humidity 18    
Maximum Humidity 43    
Minimum Humidity 4    
Precipitation  
Precipitation 0.00 in - - ()
Sea Level Pressure  
Sea Level Pressure 30.19 in    
Wind  
Wind Speed 5 mph ()    
Max Wind Speed 15 mph    
Max Gust Speed -    
Visibility 10.5 miles    
Events      
Averages and records for this station are not official NWS values.
T = Trace of Precipitation, MM = Missing Value Source: Averaged Metar Reports

Daily Weather History Graph

Daily Weather History Graph

Search for Another Location

Airport:

Trip Planner

Search our weather history database for the weather conditions in past years. The results will help you decide how hot, cold, wet, or windy it might be!

Date:

Astronomy

Mar. 03, 2013 Rise Set
Actual Time 6:43 AM CST 6:34 PM CST
Civil Twilight 6:21 AM CST 6:56 PM CST
Nautical Twilight 5:56 AM CST 7:21 PM CST
Astronomical Twilight 5:31 AM CST 7:46 PM CST
Moon No Moon Rise 10:57 AM CST (3/3)
Length of Visible Light 12h 34m
Length of Day
11h 50m
Waning Gibbous, 63% of the Moon is Illuminated
Mar 3
Waning Gibbous
Mar 4
Last Quarter
Mar 11
New
Mar 19
First Quarter
Mar 27
Full

Hourly Weather History & Observations

Time (CST) Temp. Windchill Dew Point Humidity Pressure Visibility Wind Dir Wind Speed Gust Speed Precip Events Conditions
2:55 AM 48 °F - 19 °F 20% 30.22 in 6 mi NNW 2.2 mph - -   Clear
5:50 AM 44 °F - 24 °F 32% 30.26 in 6 mi East 2.2 mph - -   Clear
6:09 AM 44.6 °F 40.7 °F 23.0 °F 43% 30.19 in 8.0 mi NE 6.9 mph - N/A   Clear
6:54 AM 44.6 °F 40.2 °F 23.0 °F 43% 30.37 in 8.0 mi North 8.1 mph - N/A   Clear
7:40 AM 46.4 °F 41.9 °F 24.8 °F 43% 30.38 in 8.0 mi NNE 9.2 mph - N/A   Clear
8:40 AM 50.0 °F - 21.2 °F 32% 30.27 in 10.0 mi North 9.2 mph - N/A   Clear
8:45 AM 69 °F - 13 °F 5% 30.24 in 12 mi NNW 4.5 mph - -   Partly Cloudy
9:54 AM 57.2 °F - 17.6 °F 21% 30.40 in 10.0 mi NNW 3.5 mph - N/A   Partly Cloudy
10:48 AM 60.8 °F - 12.2 °F 15% 30.37 in 10.0 mi NNW 5.8 mph - N/A   Partly Cloudy
11:55 AM 64.4 °F - 10.4 °F 12% 30.12 in 10.0 mi NNW 4.6 mph - N/A   Partly Cloudy
12:40 PM 66.2 °F - 8.6 °F 11% 30.29 in 10.0 mi NNW 5.8 mph - N/A   Partly Cloudy
1:46 PM 69.8 °F - 8.6 °F 9% 30.24 in 15.0 mi NE 9.2 mph - N/A   Clear
2:45 PM 78 °F - 7 °F 4% 30.04 in 12 mi NNE 4.5 mph - -   Partly Cloudy
2:45 PM 73.4 °F - 8.6 °F 8% 29.95 in 15.0 mi West 10.4 mph - N/A   Clear
3:42 PM 75.2 °F - 5.0 °F 7% 30.18 in 15.0 mi SSE 5.8 mph - N/A   Clear
4:41 PM 75.2 °F - 3.2 °F 6% 30.17 in 15.0 mi East 11.5 mph - N/A   Clear
5:45 PM 72 °F - 3 °F 4% 29.94 in 12 mi ESE 8.9 mph - -   Haze
5:46 PM 71.6 °F - 3.2 °F 7% 29.98 in 15.0 mi ENE 15.0 mph - N/A   Clear
6:42 PM 66.2 °F - 3.2 °F 8% 30.21 in 12.0 mi North 6.9 mph - N/A   Clear
7:43 PM 62.6 °F - 1.4 °F 9% 30.25 in 9.0 mi SSE 6.9 mph - N/A   Clear
8:45 PM 59 °F - 35 °F 29% 30.00 in 9 mi SSE 2.2 mph - -  
8:45 PM 59.0 °F - 12.2 °F 16% 30.13 in 8.0 mi West 5.8 mph - N/A   Clear
9:42 PM 55.4 °F - 14.0 °F 20% 30.31 in 8.0 mi North 4.6 mph - N/A   Clear
11:50 PM 52 °F - 22 °F 19% 30.06 in 9 mi NE 2.2 mph - -